TimeCDT,TemperatureF,Dew PointF,Humidity,Sea Level PressureIn,VisibilityMPH,Wind Direction,Wind SpeedMPH,Gust SpeedMPH,PrecipitationIn,Events,Conditions,WindDirDegrees,DateUTC
12:15 AM,60.8,57.2,88,30.05,10.0,Calm,Calm,-,N/A,,Clear,0,2013-09-30 05:15:00
12:35 AM,59.0,55.4,88,30.04,10.0,Calm,Calm,-,N/A,,Clear,0,2013-09-30 05:35:00
12:55 AM,59.0,55.4,88,30.04,7.0,Calm,Calm,-,N/A,,Clear,0,2013-09-30 05:55:00
1:15 AM,59.0,55.4,88,30.04,10.0,Calm,Calm,-,N/A,,Clear,0,2013-09-30 06:15:00
1:35 AM,57.2,53.6,88,30.04,10.0,Calm,Calm,-,N/A,,Clear,0,2013-09-30 06:35:00
1:55 AM,55.4,53.6,94,30.04,7.0,Calm,Calm,-,N/A,,Clear,0,2013-09-30 06:55:00
2:15 AM,59.0,53.6,82,30.04,10.0,Calm,Calm,-,N/A,,Clear,0,2013-09-30 07:15:00
2:35 AM,59.0,53.6,82,30.04,10.0,Calm,Calm,-,N/A,,Clear,0,2013-09-30 07:35:00
2:55 AM,55.4,53.6,94,30.03,10.0,Calm,Calm,-,N/A,,Scattered Clouds,0,2013-09-30 07:55:00
3:15 AM,59.0,53.6,82,30.03,10.0,Calm,Calm,-,N/A,,Overcast,0,2013-09-30 08:15:00
3:35 AM,59.0,53.6,82,30.04,10.0,Calm,Calm,-,N/A,,Overcast,0,2013-09-30 08:35:00
3:55 AM,59.0,53.6,82,30.04,10.0,Calm,Calm,-,N/A,,Overcast,0,2013-09-30 08:55:00
4:15 AM,59.0,53.6,82,30.05,10.0,Calm,Calm,-,N/A,,Overcast,0,2013-09-30 09:15:00
4:35 AM,59.0,55.4,88,30.05,10.0,Calm,Calm,-,N/A,,Overcast,0,2013-09-30 09:35:00
4:55 AM,59.0,55.4,88,30.05,10.0,Calm,Calm,-,N/A,,Overcast,0,2013-09-30 09:55:00
5:15 AM,59.0,55.4,88,30.05,10.0,Calm,Calm,-,N/A,,Overcast,0,2013-09-30 10:15:00
5:35 AM,59.0,55.4,88,30.05,10.0,Calm,Calm,-,N/A,,Overcast,0,2013-09-30 10:35:00
5:55 AM,59.0,55.4,88,30.05,10.0,Calm,Calm,-,N/A,,Overcast,0,2013-09-30 10:55:00
6:15 AM,60.8,55.4,82,30.06,10.0,Calm,Calm,-,N/A,,Overcast,0,2013-09-30 11:15:00
6:35 AM,60.8,55.4,82,30.06,10.0,Calm,Calm,-,N/A,,Overcast,0,2013-09-30 11:35:00
6:55 AM,60.8,55.4,82,30.07,10.0,Calm,Calm,-,N/A,,Overcast,0,2013-09-30 11:55:00
7:15 AM,60.8,55.4,82,30.08,10.0,Calm,Calm,-,N/A,,Overcast,0,2013-09-30 12:15:00
7:35 AM,60.8,55.4,82,30.08,10.0,Calm,Calm,-,N/A,,Overcast,0,2013-09-30 12:35:00
7:55 AM,62.6,55.4,77,30.08,10.0,NNE,3.5,-,N/A,,Overcast,30,2013-09-30 12:55:00
8:15 AM,62.6,53.6,72,30.08,10.0,Calm,Calm,-,N/A,,Overcast,0,2013-09-30 13:15:00
8:35 AM,62.6,53.6,72,30.08,10.0,Calm,Calm,-,N/A,,Overcast,0,2013-09-30 13:35:00
8:55 AM,64.4,53.6,68,30.09,10.0,Calm,Calm,-,N/A,,Overcast,0,2013-09-30 13:55:00
9:15 AM,64.4,53.6,68,30.09,10.0,Calm,Calm,-,N/A,,Overcast,0,2013-09-30 14:15:00
9:35 AM,66.2,53.6,64,30.10,10.0,Calm,Calm,-,N/A,,Mostly Cloudy,0,2013-09-30 14:35:00
9:55 AM,66.2,53.6,64,30.09,10.0,Calm,Calm,-,N/A,,Scattered Clouds,0,2013-09-30 14:55:00
10:15 AM,68.0,53.6,60,30.10,10.0,Calm,Calm,-,N/A,,Clear,0,2013-09-30 15:15:00
10:35 AM,68.0,53.6,60,30.09,10.0,Calm,Calm,-,N/A,,Mostly Cloudy,0,2013-09-30 15:35:00
10:55 AM,69.8,53.6,56,30.10,10.0,Calm,Calm,-,N/A,,Scattered Clouds,0,2013-09-30 15:55:00
11:15 AM,69.8,53.6,56,30.09,10.0,SSW,5.8,-,N/A,,Clear,210,2013-09-30 16:15:00
11:35 AM,69.8,53.6,56,30.08,10.0,Calm,Calm,-,N/A,,Clear,0,2013-09-30 16:35:00
11:55 AM,69.8,53.6,56,30.08,10.0,South,4.6,-,N/A,,Scattered Clouds,180,2013-09-30 16:55:00
12:15 PM,71.6,53.6,53,30.08,10.0,SSW,4.6,-,N/A,,Scattered Clouds,210,2013-09-30 17:15:00
12:35 PM,71.6,53.6,53,30.07,10.0,SE,3.5,-,N/A,,Scattered Clouds,140,2013-09-30 17:35:00
12:55 PM,73.4,53.6,50,30.05,10.0,Calm,Calm,-,N/A,,Mostly Cloudy,0,2013-09-30 17:55:00
1:15 PM,73.4,53.6,50,30.04,10.0,SSE,5.8,-,N/A,,Scattered Clouds,150,2013-09-30 18:15:00
1:35 PM,75.2,51.8,44,30.03,10.0,SW,5.8,-,N/A,,Mostly Cloudy,220,2013-09-30 18:35:00
1:55 PM,73.4,53.6,50,30.02,10.0,Calm,Calm,-,N/A,,Mostly Cloudy,0,2013-09-30 18:55:00
2:15 PM,73.4,53.6,50,30.01,10.0,Calm,Calm,-,N/A,,Overcast,0,2013-09-30 19:15:00
2:35 PM,73.4,51.8,47,30.01,10.0,South,4.6,-,N/A,,Overcast,180,2013-09-30 19:35:00
2:55 PM,75.2,53.6,47,30.01,10.0,Calm,Calm,-,N/A,,Mostly Cloudy,0,2013-09-30 19:55:00
3:15 PM,77.0,53.6,44,30.01,10.0,SSE,3.5,-,N/A,,Mostly Cloudy,160,2013-09-30 20:15:00
3:35 PM,75.2,53.6,47,30.01,10.0,South,8.1,-,N/A,,Scattered Clouds,180,2013-09-30 20:35:00
3:55 PM,73.4,53.6,50,30.00,10.0,South,8.1,-,N/A,,Scattered Clouds,180,2013-09-30 20:55:00
4:15 PM,73.4,53.6,50,30.01,10.0,South,3.5,-,N/A,,Clear,180,2013-09-30 21:15:00
4:35 PM,73.4,53.6,50,30.01,10.0,Calm,Calm,-,N/A,,Scattered Clouds,0,2013-09-30 21:35:00
4:55 PM,73.4,51.8,47,30.01,10.0,Calm,Calm,-,N/A,,Scattered Clouds,0,2013-09-30 21:55:00
5:15 PM,73.4,53.6,50,30.01,10.0,Calm,Calm,-,N/A,,Clear,0,2013-09-30 22:15:00
5:35 PM,73.4,53.6,50,30.01,10.0,ESE,3.5,-,N/A,,Clear,120,2013-09-30 22:35:00
5:55 PM,71.6,53.6,53,30.01,10.0,Calm,Calm,-,N/A,,Clear,0,2013-09-30 22:55:00
6:15 PM,68.0,55.4,64,30.02,10.0,Calm,Calm,-,N/A,,Clear,0,2013-09-30 23:15:00
6:35 PM,64.4,57.2,77,30.02,10.0,Calm,Calm,-,N/A,,Clear,0,2013-09-30 23:35:00
6:55 PM,64.4,57.2,77,30.03,10.0,Calm,Calm,-,N/A,,Clear,0,2013-09-30 23:55:00
7:15 PM,62.6,57.2,82,30.04,10.0,Calm,Calm,-,N/A,,Clear,0,2013-10-01 00:15:00
7:35 PM,62.6,57.2,82,30.04,10.0,Calm,Calm,-,N/A,,Clear,0,2013-10-01 00:35:00
7:55 PM,60.8,57.2,88,30.05,10.0,Calm,Calm,-,N/A,,Clear,0,2013-10-01 00:55:00
8:15 PM,60.8,55.4,82,30.05,10.0,Calm,Calm,-,N/A,,Clear,0,2013-10-01 01:15:00
8:35 PM,60.8,55.4,82,30.06,10.0,Calm,Calm,-,N/A,,Clear,0,2013-10-01 01:35:00
8:55 PM,59.0,55.4,88,30.06,10.0,Calm,Calm,-,N/A,,Clear,0,2013-10-01 01:55:00
9:15 PM,59.0,55.4,88,30.07,10.0,Calm,Calm,-,N/A,,Clear,0,2013-10-01 02:15:00
9:35 PM,59.0,55.4,88,30.07,10.0,Calm,Calm,-,N/A,,Clear,0,2013-10-01 02:35:00
9:55 PM,59.0,55.4,88,30.07,10.0,Calm,Calm,-,N/A,,Clear,0,2013-10-01 02:55:00
10:15 PM,59.0,55.4,88,30.08,10.0,Calm,Calm,-,N/A,,Clear,0,2013-10-01 03:15:00
10:35 PM,59.0,55.4,88,30.07,10.0,Calm,Calm,-,N/A,,Clear,0,2013-10-01 03:35:00
10:55 PM,57.2,55.4,94,30.07,10.0,Calm,Calm,-,N/A,,Clear,0,2013-10-01 03:55:00
11:15 PM,57.2,53.6,88,30.07,10.0,Calm,Calm,-,N/A,,Clear,0,2013-10-01 04:15:00
11:35 PM,55.4,53.6,94,30.07,10.0,Calm,Calm,-,N/A,,Clear,0,2013-10-01 04:35:00
11:55 PM,55.4,53.6,94,30.06,10.0,Calm,Calm,-,N/A,,Clear,0,2013-10-01 04:55:00